CZ-5 R/B, 66143

Orbit data source: Space-Track

CZ-5 R/B, 66143 is space debris in HEO originally from a launch on Thu, 23 Oct 2025 UTC launched from the Wenchang Satellite Launch Center (WSC). Debris objects in space refer to the collection of defunct objects orbiting the Earth. Examples of debris include non-operational satellites, rocket bodies, and fragments generated from explosions, collisions, or faulty payload assembly.

Loading next visibility...
Identifier
66143, 2025-238B
Orbit
HEO
Country
Flag of CNCN / PRC
Related business
Manufacturer
CALT
Mission
Spacecraft
Bus & Motor
CZ-5 H5-2, Unknown motor
Mass
5,100 kg wet, 5,100 kg dry
Launch date (UTC)
2025-10-23 (1 week ago)
Launch vehicle
Unknown
Launch site
Wenchang Satellite Launch Center (WSC)
Object type
Payload
Rocket body
Debris
Shape & HBR
Unknown
Radar Cross Section
RCS unknown

Expand to show TLE details & history
Last TLE update: 1 day ago

TLE from 1 day ago
0 CZ-5 R/B
1 66143U 25238B   25303.69730149  .00025495 -90227-6  11683-2 0  9995
2 66143  16.3901 271.0168 7595707 168.4437 232.7638  1.93025961   153
Epoch: 2025-10-30T16:44Z
TLE epoch observation values (Epoch: 2025-10-30T16:44:06.848Z)
Latitude
0.0001°
Longitude
-19.31238°
Altitude
38,656.754 km
Speed
1.753 km/s
True Right ascension
18h 03m 52s
True Declination
0° 00' 00"
Sunlit
Object was in daylight at epoch
Visualization orbit readout
Latitude
Unknown
Longitude
Unknown
Altitude
Unknown
Speed
Unknown
Apparent Right ascension
Unknown
Apparent Declination
Unknown
Sunlit
N/A
Visualization observer readout
Local Sidereal Time
15:45:56
Azimuth
Unknown
Elevation
Unknown
Doppler factor
Unknown
Orbital elements
Apogee altitude
41,574.681 km
Perigee altitude
174.178 km
Semi-major axis
27,252.567 km
Eccentricity
0.75957
Inclination
16.3901°
RAAN
271.0168°
Arg. of periapsis
168.4437°
True anomaly
191.55121°
Mean anomaly
232.7638°
Eccentric anomaly
210.60618°
Mean motion
0.48243 °/min
Orbital period
746.23 mins
BSTAR
0.0011683
Loading maneuver chart data...
Computing Atmospheric mass density...
Loading historical data...
Loading historical data...
Loading historical data...
Loading historical data...
Loading historical data...
Loading historical data...
Loading historical data...
Other satellites on launch #238 in the year 2025 (2025-10-23 UTC)

Documentation

Showing up to 5 results
|